Voltar ao catálogo

STARLINK-37637

AtivoComunicaçõesSSO
NORAD 69026·PAYLOAD·🇺🇸 United States

Lançado May 6, 2026 de Vandenberg Space Force Base

Loading…

Próximas Passagens (próximas 24 horas)

TLE

AtualizadoSource: CelesTrak SupGP

Época: Sep 15, 2026, 03:31 UTC

1 69026C 26101B   26258.14701389 -.00025298  00000+0 -78577-3 0  2581
2 69026  97.2844 111.7244 0001915 106.7292 112.2976 15.33432366    17

Acompanhe STARLINK-37637 em tempo real com AllMySat

Download on the App Store